E1763 Weather Reports


Display with metric or nautical units.
time (UTC)temp
F
wind
direction
speed
MPH
gust
MPH
rain 1hr
in
rain 24hr
in
rain mn
in
humidity
%
barometer
mb
20260508064527 51 349 0.0 0.0 0.00 0.01 0.01 95 1013.4
20260508063008 51 331 0.0 0.0 0.00 0.01 0.01 95 1013.5
20260508061510 51 23 0.0 0.0 0.00 0.01 0.01 95 1013.6
20260508060007 51 355 0.0 0.0 0.00 0.01 0.01 95 1013.9
20260508054507 51 355 0.0 0.0 0.00 0.01 0.01 95 1013.8
20260508053006 51 11 0.0 0.0 0.00 0.01 0.01 95 1013.9
20260508051506 51 58 0.0 0.0 0.00 0.01 0.01 95 1013.8
20260508050009 51 344 0.0 0.0 0.00 0.01 0.01 95 1013.9
20260508044505 51 278 0.0 0.0 0.00 0.01 0.01 94 1013.7
20260508043004 52 11 0.0 0.0 0.00 0.01 0.01 94 1013.6
20260508041604 52 19 0.0 0.0 0.00 0.01 0.01 94 1013.3
20260508040007 52 300 0.0 0.0 0.00 0.01 0.01 93 1013.0
20260508034502 53 355 0.0 0.0 0.00 0.01 0.01 93 1012.8
20260508033004 53 284 0.0 0.0 0.00 0.01 0.01 92 1012.6
20260508031504 53 298 0.0 0.0 0.00 0.01 0.01 91 1012.5
20260508024602 55 242 0.0 0.0 0.00 0.01 0.01 89 1012.4
20260508023100 56 20 0.0 0.0 0.00 0.01 0.01 88 1012.4
20260508021559 58 264 0.0 0.0 0.00 0.01 0.01 84 1012.4
20260508020100 60 271 0.0 0.0 0.00 0.01 0.01 82 1012.1
20260508014557 61 355 0.0 0.0 0.00 0.01 0.01 82 1012.1
20260508013056 63 5 0.0 0.0 0.00 0.01 0.01 77 1012.2
20260508011554 64 321 0.0 0.0 0.00 0.01 0.01 77 1012.3
20260508010052 64 225 0.0 0.0 0.00 0.01 0.01 77 1012.5
20260508004554 63 184 0.0 0.0 0.00 0.01 0.01 79 1012.5
20260508003052 63 344 0.0 0.0 0.00 0.01 0.01 81 1012.4
20260508001550 62 346 0.0 0.0 0.00 0.01 0.01 78 1012.5
20260508000054 63 347 0.0 0.0 0.00 0.01 0.01 79 1012.6
20260507234553 63 348 0.0 0.0 0.00 0.01 0.01 78 1012.8
20260507233105 64 360 0.0 0.0 0.00 0.01 0.01 78 1012.8
20260507231544 64 186 0.0 0.0 0.00 0.01 0.01 79 1013.0
20260507230045 65 207 0.0 0.0 0.00 0.01 0.01 77 1013.1
20260507224539 66 246 0.0 0.0 0.00 0.01 0.01 76 1013.1
20260507223053 66 236 0.0 0.0 0.00 0.01 0.01 77 1013.1
20260507221541 66 227 0.0 0.0 0.00 0.01 0.01 76 1013.1
20260507220039 68 237 0.0 0.0 0.00 0.01 0.01 73 1013.2
20260507214534 70 234 0.0 1.0 0.00 0.01 0.01 72 1013.2
20260507213033 70 192 0.0 0.0 0.00 0.01 0.01 74 1013.2
20260507211536 69 24 0.0 0.0 0.00 0.01 0.01 75 1013.1
20260507210030 69 283 0.0 0.0 0.00 0.01 0.01 78 1013.2
20260507204522 67 236 0.0 0.0 0.00 0.01 0.01 80 1013.1
20260507203019 65 196 0.0 2.0 0.00 0.01 0.01 81 1013.2
20260507201519 65 240 0.0 4.0 0.00 0.01 0.01 81 1013.3
20260507200016 65 239 0.0 0.0 0.00 0.01 0.01 85 1013.5
20260507194528 64 141 0.0 0.0 0.00 0.01 0.01 86 1013.5
20260507193014 62 182 0.0 0.0 0.00 0.01 0.01 89 1013.6
20260507191506 60 204 0.0 0.0 0.00 0.01 0.01 92 1013.7
20260507190010 59 227 0.0 0.0 0.00 0.01 0.01 92 1013.8
20260507184600 57 194 0.0 0.0 0.00 0.01 0.01 94 1013.9
20260507183115 56 311 0.0 0.0 0.00 0.01 0.01 95 1014.1
20260507181600 56 248 0.0 0.0 0.00 0.01 0.01 96 1014.1
20260507180055 55 207 0.0 0.0 0.00 0.01 0.01 96 1014.1
20260507174600 54 270 0.0 0.0 0.00 0.01 0.01 96 1014.1
20260507173050 53 262 0.0 0.0 0.00 0.01 0.01 97 1014.2
20260507171547 53 279 0.0 0.0 0.00 0.01 0.01 97 1014.2
20260507170046 53 193 0.0 0.0 0.00 0.01 0.01 97 1014.2
20260507164603 52 238 0.0 0.0 0.00 0.01 0.01 96 1014.1
20260507163042 52 238 0.0 0.0 0.00 0.01 0.01 97 1014.1
20260507161552 52 197 0.0 0.0 0.00 0.01 0.01 97 1014.1
20260507160040 52 243 0.0 0.0 0.00 0.01 0.01 97 1014.0
20260507154539 51 248 0.0 0.0 0.00 0.02 0.01 97 1013.9
20260507153041 51 226 0.0 0.0 0.00 0.02 0.01 97 1013.8
20260507151537 51 258 0.0 0.0 0.00 0.02 0.01 96 1013.6
20260507150036 50 211 0.0 1.0 0.00 0.02 0.01 96 1013.5
20260507144537 50 196 0.0 0.0 0.00 0.02 0.01 97 1013.5
20260507143040 50 194 0.0 0.0 0.00 0.02 0.01 97 1013.5
20260507141535 50 100 0.0 0.0 0.00 0.02 0.01 96 1013.4
20260507140035 50 194 0.0 0.0 0.00 0.02 0.01 96 1013.3
20260507134533 50 74 0.0 0.0 0.00 0.02 0.01 96 1013.4
20260507133032 49 127 0.0 0.0 0.00 0.02 0.01 96 1013.2
20260507131531 49 127 0.0 0.0 0.01 0.02 0.01 96 1013.1
20260507130037 50 126 0.0 0.0 0.01 0.02 0.01 96 1013.1
20260507124537 50 126 0.0 0.0 0.01 0.02 0.01 96 1013.1
20260507123028 50 127 0.0 0.0 0.01 0.02 0.01 96 1013.2
20260507121527 50 126 0.0 0.0 0.00 0.01 0.00 96 1013.1
20260507120025 50 126 0.0 0.0 0.00 0.01 0.00 96 1013.1
20260507114534 50 126 0.0 0.0 0.00 0.01 0.00 96 1013.2
20260507113038 50 126 0.0 0.0 0.00 0.01 0.00 96 1013.3
20260507111525 50 319 0.0 0.0 0.00 0.01 0.00 96 1013.3
20260507110020 50 319 0.0 0.0 0.00 0.01 0.00 96 1013.4
20260507104519 50 355 0.0 0.0 0.00 0.01 0.00 96 1013.4
20260507103020 50 9 0.0 0.0 0.00 0.01 0.00 96 1013.6
20260507101518 50 5 0.0 0.0 0.00 0.01 0.00 96 1013.5
20260507100014 50 258 0.0 0.0 0.00 0.01 0.00 96 1013.6
20260507094511 50 355 0.0 0.0 0.00 0.01 0.00 96 1013.7
20260507093010 50 343 0.0 0.0 0.00 0.01 0.00 96 1013.7
20260507091509 51 328 0.0 0.0 0.00 0.01 0.00 96 1013.8
20260507090008 51 346 0.0 0.0 0.00 0.01 0.00 96 1013.9
20260507084508 51 292 0.0 0.0 0.00 0.01 0.00 95 1013.8
20260507083006 51 292 0.0 0.0 0.00 0.01 0.00 95 1013.7
20260507081507 51 9 0.0 0.0 0.00 0.01 0.00 95 1013.7
20260507080004 51 333 0.0 0.0 0.00 0.01 0.00 95 1013.8
20260507074503 51 5 0.0 0.0 0.00 0.01 0.00 95 1013.8
20260507073002 51 32 0.0 0.0 0.00 0.01 0.00 95 1013.8
20260507071500 51 32 0.0 0.0 0.00 0.01 0.00 95 1013.9
20260507070106 51 32 0.0 0.0 0.00 0.01 0.00 95 1013.8